JUS927K KMKE-CYQB

Flight info

Callsign JUS927K
Flight time 2h 4m
Altitude 39000
Route SQUIB DCT HAUCK DCT HRRSH DCT HOCKE Q824 MENKO Q848 DICEN DCT OLAVO OLAVO4
Aircraft B722/M-SDFHLM3OW/S

Departure

Time 2026-04-25 00:19
Airport General Mitchell International Airport (KMKE)

Arrival

Time 2026-04-25 02:23
Airport Quebec Jean Lesage International Airport (CYQB)
Time Latitude Longitude Altitude Speed Heading
2026-04-24 23:48 42.94315 -87.91303 683 ft 0 kts 340°
2026-04-25 00:03 42.94304 -87.91299 688 ft 4 kts 341°
2026-04-25 00:03 42.94283 -87.91289 690 ft 3 kts 342°
2026-04-25 00:04 42.94263 -87.91288 684 ft 4 kts 32°
2026-04-25 00:04 42.94253 -87.91312 685 ft 4 kts 71°
2026-04-25 00:04 42.94247 -87.91337 688 ft 0 kts 71°
2026-04-25 00:12 42.94248 -87.91332 685 ft 2 kts 71°
2026-04-25 00:12 42.94260 -87.91287 689 ft 8 kts 71°
2026-04-25 00:12 42.94256 -87.91208 685 ft 8 kts 134°
2026-04-25 00:13 42.94205 -87.91182 689 ft 10 kts 162°
2026-04-25 00:13 42.94183 -87.91121 684 ft 9 kts 72°
2026-04-25 00:13 42.94207 -87.91024 690 ft 13 kts 71°
2026-04-25 00:13 42.94240 -87.90888 684 ft 17 kts 71°
2026-04-25 00:14 42.94283 -87.90717 691 ft 21 kts 71°
2026-04-25 00:14 42.94333 -87.90512 687 ft 24 kts 72°
2026-04-25 00:14 42.94390 -87.90278 689 ft 26 kts 71°
2026-04-25 00:14 42.94444 -87.90063 691 ft 21 kts 71°
2026-04-25 00:15 42.94400 -87.89949 684 ft 18 kts 168°
2026-04-25 00:15 42.94266 -87.89916 687 ft 22 kts 170°
2026-04-25 00:15 42.94106 -87.89879 685 ft 25 kts 172°
2026-04-25 00:15 42.93922 -87.89887 687 ft 28 kts 182°
2026-04-25 00:16 42.93718 -87.89892 687 ft 31 kts 180°
2026-04-25 00:16 42.93494 -87.89897 683 ft 33 kts 182°
2026-04-25 00:16 42.93281 -87.89917 689 ft 19 kts 188°
2026-04-25 00:16 42.93190 -87.89932 685 ft 13 kts 176°
2026-04-25 00:17 42.93154 -87.89859 685 ft 8 kts 97°
2026-04-25 00:17 42.93152 -87.89767 691 ft 10 kts 66°
2026-04-25 00:17 42.93162 -87.89748 685 ft 0 kts
2026-04-25 00:18 42.93280 -87.89734 688 ft 49 kts
2026-04-25 00:18 42.93904 -87.89629 687 ft 129 kts
2026-04-25 00:18 42.94943 -87.89398 1041 ft 157 kts 10°
2026-04-25 00:19 42.96025 -87.89041 1732 ft 167 kts 15°
2026-04-25 00:19 42.97201 -87.88589 2206 ft 184 kts 12°
2026-04-25 00:19 42.98322 -87.88213 2767 ft 142 kts 12°
2026-04-25 00:19 42.99258 -87.87888 2917 ft 134 kts
2026-04-25 00:20 43.00176 -87.87724 3363 ft 135 kts
2026-04-25 00:20 43.01139 -87.87487 3983 ft 146 kts
2026-04-25 00:20 43.02165 -87.87246 4623 ft 157 kts
2026-04-25 00:20 43.03297 -87.87200 5035 ft 181 kts 345°
2026-04-25 00:21 43.04599 -87.87634 5071 ft 194 kts 347°
2026-04-25 00:21 43.05943 -87.87410 5051 ft 202 kts 19°
2026-04-25 00:21 43.07084 -87.86283 5062 ft 207 kts 47°
2026-04-25 00:21 43.07701 -87.84501 5442 ft 214 kts 74°
2026-04-25 00:22 43.07681 -87.82387 5993 ft 235 kts 100°
2026-04-25 00:22 43.07192 -87.80088 6592 ft 263 kts 108°
2026-04-25 00:22 43.06620 -87.77712 7176 ft 265 kts 106°
2026-04-25 00:22 43.06122 -87.75273 7744 ft 267 kts 104°
2026-04-25 00:23 43.05647 -87.72805 8301 ft 269 kts 104°
2026-04-25 00:23 43.05155 -87.70351 8848 ft 272 kts 105°
2026-04-25 00:23 43.04639 -87.67853 9398 ft 274 kts 105°
2026-04-25 00:23 43.04123 -87.65337 9950 ft 276 kts 105°
2026-04-25 00:24 43.03602 -87.62784 10500 ft 279 kts 105°
2026-04-25 00:24 43.03076 -87.60209 11063 ft 282 kts 105°
2026-04-25 00:24 43.02546 -87.57622 11598 ft 284 kts 105°
2026-04-25 00:24 43.02005 -87.55000 12153 ft 292 kts 105°
2026-04-25 00:25 43.01435 -87.52222 12711 ft 315 kts 106°
2026-04-25 00:25 43.00820 -87.49229 13283 ft 339 kts 106°
2026-04-25 00:25 43.00160 -87.46031 13856 ft 360 kts 107°
2026-04-25 00:25 42.99456 -87.42652 14424 ft 380 kts 107°
2026-04-25 00:26 42.98717 -87.39087 14949 ft 395 kts 107°
2026-04-25 00:26 42.97973 -87.35481 15458 ft 397 kts 108°
2026-04-25 00:26 42.97219 -87.31839 15967 ft 398 kts 108°
2026-04-25 00:26 42.96459 -87.28191 16474 ft 401 kts 108°
2026-04-25 00:27 42.95694 -87.24513 16958 ft 403 kts 109°
2026-04-25 00:27 42.94927 -87.20833 17469 ft 405 kts 109°
2026-04-25 00:27 42.94149 -87.17116 17969 ft 407 kts 109°
2026-04-25 00:27 42.93372 -87.13394 18473 ft 410 kts 109°
2026-04-25 00:28 42.92589 -87.09650 18965 ft 412 kts 109°
2026-04-25 00:28 42.92042 -87.05785 19433 ft 419 kts 97°
2026-04-25 00:28 42.91982 -87.01847 19918 ft 424 kts 92°
2026-04-25 00:28 42.92154 -86.97812 20411 ft 428 kts 89°
2026-04-25 00:29 42.92413 -86.93749 20912 ft 431 kts 89°
2026-04-25 00:29 42.92568 -86.89658 21421 ft 432 kts 92°
2026-04-25 00:29 42.92631 -86.85534 21924 ft 435 kts 92°
2026-04-25 00:29 42.92741 -86.81396 22420 ft 438 kts 91°
2026-04-25 00:30 42.92916 -86.77225 22919 ft 442 kts 91°
2026-04-25 00:30 42.93072 -86.73038 23420 ft 444 kts 92°
2026-04-25 00:30 42.93181 -86.68814 23921 ft 446 kts 92°
2026-04-25 00:30 42.93295 -86.64569 24419 ft 450 kts 92°
2026-04-25 00:31 42.93438 -86.60290 24918 ft 453 kts 91°
2026-04-25 00:31 42.93583 -86.55988 25416 ft 456 kts 92°
2026-04-25 00:31 42.93708 -86.51654 25919 ft 459 kts 92°
2026-04-25 00:31 42.93826 -86.47280 26408 ft 463 kts 92°
2026-04-25 00:32 42.93956 -86.42881 26915 ft 466 kts 92°
2026-04-25 00:32 42.94093 -86.38439 27416 ft 469 kts 92°
2026-04-25 00:32 42.94221 -86.34019 27934 ft 456 kts 92°
2026-04-25 00:32 42.94343 -86.29762 28415 ft 448 kts 92°
2026-04-25 00:33 42.94455 -86.25492 28908 ft 451 kts 92°
2026-04-25 00:33 42.94566 -86.21264 29396 ft 453 kts 92°
2026-04-25 00:33 42.94686 -86.16953 29888 ft 455 kts 92°
2026-04-25 00:33 42.94806 -86.12631 30397 ft 456 kts 92°
2026-04-25 00:34 42.94918 -86.08301 30895 ft 457 kts 92°
2026-04-25 00:34 42.95026 -86.03916 31398 ft 457 kts 93°
2026-04-25 00:34 42.95136 -85.99625 31890 ft 457 kts 92°
2026-04-25 00:34 42.95247 -85.95292 32391 ft 456 kts 92°
2026-04-25 00:35 42.95354 -85.90971 32887 ft 455 kts 92°
2026-04-25 00:35 42.95458 -85.86649 33386 ft 454 kts 92°
2026-04-25 00:35 42.95560 -85.82346 33883 ft 452 kts 92°
2026-04-25 00:35 42.95662 -85.78069 34379 ft 449 kts 92°
2026-04-25 00:36 42.95759 -85.73824 34873 ft 445 kts 92°
2026-04-25 00:36 42.95856 -85.69616 35370 ft 442 kts 92°
2026-04-25 00:36 42.95948 -85.65490 35849 ft 438 kts 92°
2026-04-25 00:36 42.96040 -85.61353 36341 ft 434 kts 92°
2026-04-25 00:37 42.96131 -85.57211 36838 ft 429 kts 92°
2026-04-25 00:37 42.96219 -85.53175 37325 ft 422 kts 92°
2026-04-25 00:37 42.96301 -85.49241 37807 ft 416 kts 92°
2026-04-25 00:37 42.96380 -85.45329 38293 ft 409 kts 92°
2026-04-25 00:38 42.96457 -85.41461 38636 ft 406 kts 92°
2026-04-25 00:38 42.96534 -85.37617 38818 ft 408 kts 92°
2026-04-25 00:38 42.96685 -85.29736 38833 ft 422 kts 92°
2026-04-25 00:39 42.96837 -85.21597 38825 ft 436 kts 91°
2026-04-25 00:39 42.96989 -85.13202 38830 ft 449 kts 91°
2026-04-25 00:40 42.97175 -85.04542 38819 ft 463 kts 88°
2026-04-25 00:40 42.98182 -84.95771 38821 ft 477 kts 78°
2026-04-25 00:41 42.99608 -84.86810 38834 ft 488 kts 82°
2026-04-25 00:41 43.00685 -84.77544 38814 ft 500 kts 81°
2026-04-25 00:42 43.02027 -84.68214 38821 ft 495 kts 81°
2026-04-25 00:42 43.03179 -84.58950 38816 ft 494 kts 81°
2026-04-25 00:43 43.04416 -84.49761 38814 ft 484 kts 80°
2026-04-25 00:43 43.05576 -84.40673 38807 ft 486 kts 81°
2026-04-25 00:44 43.06758 -84.31575 38803 ft 486 kts 80°
2026-04-25 00:44 43.07916 -84.22521 38804 ft 486 kts 81°
2026-04-25 00:45 43.09072 -84.13415 38802 ft 486 kts 81°
2026-04-25 00:45 43.10231 -84.04280 38802 ft 486 kts 81°
2026-04-25 00:46 43.11180 -83.96691 38801 ft 487 kts 81°
2026-04-25 00:47 43.13067 -83.81565 38801 ft 484 kts 80°
2026-04-25 00:47 43.14008 -83.73944 38772 ft 485 kts 80°
2026-04-25 00:48 43.15121 -83.64911 38789 ft 483 kts 80°
2026-04-25 00:48 43.16229 -83.55791 38884 ft 485 kts 80°
2026-04-25 00:49 43.17333 -83.46680 38981 ft 485 kts 80°
2026-04-25 00:49 43.18433 -83.37531 39080 ft 486 kts 80°
2026-04-25 00:50 43.19529 -83.28373 39180 ft 488 kts 80°
2026-04-25 00:50 43.20616 -83.19200 39281 ft 487 kts 80°
2026-04-25 00:51 43.21685 -83.10086 39377 ft 488 kts 80°
2026-04-25 00:51 43.22767 -83.00885 39390 ft 490 kts 79°
2026-04-25 00:51 43.23300 -82.96290 39248 ft 478 kts 79°
2026-04-25 00:52 43.23814 -82.91819 39089 ft 475 kts 79°
2026-04-25 00:52 43.24334 -82.87343 38939 ft 475 kts 79°
2026-04-25 00:52 43.24850 -82.82872 38784 ft 473 kts 79°
2026-04-25 00:52 43.25360 -82.78411 38630 ft 473 kts 79°
2026-04-25 00:53 43.25890 -82.73962 38472 ft 470 kts 76°
2026-04-25 00:53 43.26850 -82.69719 38301 ft 464 kts 64°
2026-04-25 00:53 43.28221 -82.65739 38158 ft 459 kts 59°
2026-04-25 00:53 43.29790 -82.61944 37996 ft 456 kts 55°
2026-04-25 00:54 43.31434 -82.58227 37846 ft 455 kts 56°
2026-04-25 00:54 43.32977 -82.54436 37704 ft 455 kts 58°
2026-04-25 00:54 43.34438 -82.50585 37514 ft 455 kts 58°
2026-04-25 00:54 43.35941 -82.46778 37287 ft 451 kts 57°
2026-04-25 00:55 43.37485 -82.43046 37082 ft 448 kts 56°
2026-04-25 00:55 43.39006 -82.39317 36881 ft 446 kts 57°
2026-04-25 00:55 43.40483 -82.35566 36685 ft 445 kts 58°
2026-04-25 00:55 43.41958 -82.31819 36480 ft 444 kts 57°
2026-04-25 00:56 43.43450 -82.28111 36315 ft 442 kts 57°
2026-04-25 00:56 43.44959 -82.24367 36175 ft 451 kts 57°
2026-04-25 00:56 43.46462 -82.20586 36060 ft 463 kts 58°
2026-04-25 00:56 43.48015 -82.16654 35941 ft 468 kts 58°
2026-04-25 00:57 43.49581 -82.12770 36156 ft 459 kts 56°
2026-04-25 00:57 43.51179 -82.08970 36522 ft 457 kts 56°
2026-04-25 00:57 43.52777 -82.05179 36892 ft 456 kts 56°
2026-04-25 00:57 43.54335 -82.01376 37268 ft 455 kts 57°
2026-04-25 00:58 43.55874 -81.97591 37641 ft 452 kts 56°
2026-04-25 00:58 43.57426 -81.93822 38014 ft 450 kts 56°
2026-04-25 00:58 43.58980 -81.90074 38275 ft 450 kts 56°
2026-04-25 00:58 43.60527 -81.86312 38525 ft 451 kts 56°
2026-04-25 00:59 43.62065 -81.82540 38782 ft 451 kts 56°
2026-04-25 00:59 43.65191 -81.74910 38843 ft 463 kts 56°
2026-04-25 01:00 43.68390 -81.67061 38854 ft 475 kts 56°
2026-04-25 01:00 43.71648 -81.59050 38854 ft 478 kts 56°
2026-04-25 01:01 43.74827 -81.51158 38846 ft 466 kts 56°
2026-04-25 01:01 43.77950 -81.43263 38839 ft 468 kts 56°
2026-04-25 01:02 43.81069 -81.35432 38852 ft 467 kts 56°
2026-04-25 01:02 43.84183 -81.27546 38851 ft 467 kts 56°
2026-04-25 01:03 43.87298 -81.19652 38852 ft 466 kts 56°
2026-04-25 01:03 43.90399 -81.11774 38850 ft 465 kts 56°
2026-04-25 01:04 43.93492 -81.03889 38892 ft 464 kts 56°
2026-04-25 01:04 43.96555 -80.96058 38888 ft 464 kts 56°
2026-04-25 01:05 43.99624 -80.88194 38899 ft 462 kts 55°
2026-04-25 01:05 44.02684 -80.80329 38896 ft 463 kts 55°
2026-04-25 01:06 44.05744 -80.72443 38896 ft 463 kts 55°
2026-04-25 01:06 44.08790 -80.64565 38894 ft 461 kts 54°
2026-04-25 01:07 44.11826 -80.56698 38899 ft 461 kts 54°
2026-04-25 01:07 44.14854 -80.48829 38897 ft 461 kts 54°
2026-04-25 01:08 44.17859 -80.40996 38896 ft 460 kts 54°
2026-04-25 01:08 44.20866 -80.33130 38910 ft 459 kts 54°
2026-04-25 01:09 44.23869 -80.25266 38920 ft 459 kts 54°
2026-04-25 01:09 44.26865 -80.17379 38928 ft 460 kts 54°
2026-04-25 01:10 44.29837 -80.09552 38920 ft 460 kts 54°
2026-04-25 01:10 44.32825 -80.01657 38915 ft 460 kts 54°
2026-04-25 01:11 44.35801 -79.93761 38917 ft 459 kts 54°
2026-04-25 01:11 44.38778 -79.85851 38919 ft 459 kts 54°
2026-04-25 01:12 44.41722 -79.77998 38919 ft 459 kts 54°
2026-04-25 01:12 44.44688 -79.70071 38915 ft 459 kts 54°
2026-04-25 01:13 44.47641 -79.62146 38915 ft 459 kts 54°
2026-04-25 01:13 44.50596 -79.54206 38927 ft 460 kts 54°
2026-04-25 01:14 44.53546 -79.46248 38933 ft 460 kts 54°
2026-04-25 01:14 44.56490 -79.38285 38931 ft 460 kts 54°
2026-04-25 01:15 44.59424 -79.30326 38934 ft 459 kts 54°
2026-04-25 01:15 44.62348 -79.22370 38929 ft 459 kts 54°
2026-04-25 01:16 44.65275 -79.14383 38932 ft 459 kts 54°
2026-04-25 01:16 44.68187 -79.06413 38928 ft 460 kts 54°
2026-04-25 01:17 44.71088 -78.98453 38932 ft 459 kts 54°
2026-04-25 01:17 44.73990 -78.90469 38927 ft 459 kts 54°
2026-04-25 01:18 44.76887 -78.82467 38934 ft 459 kts 54°
2026-04-25 01:18 44.79413 -78.74111 38951 ft 470 kts 63°
2026-04-25 01:19 44.81429 -78.65340 38945 ft 467 kts 61°
2026-04-25 01:19 44.83766 -78.56833 38945 ft 467 kts 61°
2026-04-25 01:20 44.85885 -78.48191 38950 ft 469 kts 62°
2026-04-25 01:20 44.88123 -78.39583 38944 ft 467 kts 61°
2026-04-25 01:21 44.90295 -78.30939 38951 ft 467 kts 62°
2026-04-25 01:21 44.92483 -78.22308 38951 ft 467 kts 61°
2026-04-25 01:22 44.94662 -78.13658 38951 ft 467 kts 62°
2026-04-25 01:22 44.96830 -78.05001 38966 ft 466 kts 61°
2026-04-25 01:23 44.98990 -77.96374 38976 ft 465 kts 62°
2026-04-25 01:23 45.01116 -77.87820 38972 ft 464 kts 62°
2026-04-25 01:24 45.03252 -77.79212 38971 ft 463 kts 62°
2026-04-25 01:24 45.05379 -77.70611 38983 ft 463 kts 62°
2026-04-25 01:25 45.07497 -77.62003 38981 ft 463 kts 62°
2026-04-25 01:25 45.09611 -77.53378 38981 ft 463 kts 62°
2026-04-25 01:26 45.11704 -77.44817 38991 ft 462 kts 62°
2026-04-25 01:26 45.13799 -77.36205 38990 ft 462 kts 62°
2026-04-25 01:27 45.15891 -77.27581 38993 ft 462 kts 62°
2026-04-25 01:27 45.17975 -77.18946 39003 ft 463 kts 62°
2026-04-25 01:28 45.21084 -77.06024 39003 ft 461 kts 63°
2026-04-25 01:28 45.23143 -76.97400 38997 ft 462 kts 63°
2026-04-25 01:29 45.25187 -76.88827 38993 ft 460 kts 63°
2026-04-25 01:29 45.27232 -76.80214 39001 ft 461 kts 64°
2026-04-25 01:30 45.29271 -76.71589 39001 ft 461 kts 64°
2026-04-25 01:30 45.31305 -76.62952 38998 ft 460 kts 64°
2026-04-25 01:31 45.33326 -76.54336 39012 ft 460 kts 64°
2026-04-25 01:31 45.35002 -76.47165 39003 ft 460 kts 64°
2026-04-25 01:32 45.37350 -76.37084 39013 ft 459 kts 65°
2026-04-25 01:32 45.39004 -76.29916 39009 ft 459 kts 65°
2026-04-25 01:33 45.41248 -76.21482 39011 ft 451 kts 57°
2026-04-25 01:33 45.44841 -76.12552 39004 ft 446 kts 53°
2026-04-25 01:34 45.47287 -76.05969 39027 ft 451 kts 57°
2026-04-25 01:34 45.50193 -75.98160 39006 ft 448 kts 54°
2026-04-25 01:35 45.53172 -75.90341 39007 ft 448 kts 56°
2026-04-25 01:35 45.56083 -75.82481 39005 ft 448 kts 55°
2026-04-25 01:36 45.59030 -75.74653 39012 ft 448 kts 56°
2026-04-25 01:36 45.61948 -75.66777 39013 ft 448 kts 56°
2026-04-25 01:37 45.64879 -75.58911 39004 ft 448 kts 56°
2026-04-25 01:37 45.67791 -75.51030 39010 ft 449 kts 56°
2026-04-25 01:38 45.70706 -75.43147 39007 ft 448 kts 56°
2026-04-25 01:38 45.73595 -75.35294 39003 ft 448 kts 56°
2026-04-25 01:39 45.76499 -75.27389 39011 ft 448 kts 56°
2026-04-25 01:39 45.79396 -75.19470 39013 ft 449 kts 56°
2026-04-25 01:40 45.82292 -75.11540 39028 ft 449 kts 56°
2026-04-25 01:40 45.85190 -75.03576 39030 ft 449 kts 56°
2026-04-25 01:41 45.88082 -74.95608 39015 ft 450 kts 56°
2026-04-25 01:41 45.90944 -74.87692 39042 ft 450 kts 56°
2026-04-25 01:42 45.93821 -74.79716 39048 ft 449 kts 56°
2026-04-25 01:42 45.96692 -74.71728 39058 ft 449 kts 56°
2026-04-25 01:43 45.99559 -74.63741 39056 ft 450 kts 56°
2026-04-25 01:43 46.02420 -74.55730 39067 ft 449 kts 57°
2026-04-25 01:44 46.05277 -74.47721 39077 ft 449 kts 56°
2026-04-25 01:44 46.08122 -74.39708 39074 ft 449 kts 57°
2026-04-25 01:45 46.10951 -74.31725 39072 ft 449 kts 57°
2026-04-25 01:45 46.13792 -74.23681 39072 ft 451 kts 57°
2026-04-25 01:46 46.16630 -74.15624 39073 ft 450 kts 57°
2026-04-25 01:46 46.19455 -74.07572 39074 ft 450 kts 57°
2026-04-25 01:47 46.20871 -74.03532 38958 ft 452 kts 57°
2026-04-25 01:47 46.22287 -73.99487 38620 ft 449 kts 57°
2026-04-25 01:47 46.23681 -73.95488 38231 ft 443 kts 56°
2026-04-25 01:47 46.25055 -73.91534 37801 ft 436 kts 56°
2026-04-25 01:48 46.26407 -73.87650 37359 ft 432 kts 56°
2026-04-25 01:48 46.27752 -73.83788 36879 ft 427 kts 56°
2026-04-25 01:48 46.29075 -73.79979 36398 ft 421 kts 55°
2026-04-25 01:48 46.30381 -73.76209 35899 ft 418 kts 55°
2026-04-25 01:49 46.31686 -73.72446 35382 ft 419 kts 55°
2026-04-25 01:49 46.32968 -73.68738 34873 ft 415 kts 55°
2026-04-25 01:49 46.34247 -73.65014 34356 ft 410 kts 54°
2026-04-25 01:49 46.35509 -73.61351 33849 ft 405 kts 54°
2026-04-25 01:50 46.36768 -73.57707 33313 ft 401 kts 53°
2026-04-25 01:50 46.38004 -73.54117 32796 ft 397 kts 54°
2026-04-25 01:50 46.39228 -73.50543 32276 ft 394 kts 54°
2026-04-25 01:50 46.40438 -73.47008 31761 ft 390 kts 54°
2026-04-25 01:51 46.41642 -73.43495 31234 ft 387 kts 54°
2026-04-25 01:51 46.42817 -73.40063 30717 ft 383 kts 54°
2026-04-25 01:51 46.43991 -73.36617 30211 ft 378 kts 54°
2026-04-25 01:51 46.45149 -73.33212 29696 ft 375 kts 54°
2026-04-25 01:52 46.46300 -73.29839 29185 ft 371 kts 54°
2026-04-25 01:52 46.47438 -73.26500 28677 ft 367 kts 55°
2026-04-25 01:52 46.48561 -73.23196 28170 ft 363 kts 55°
2026-04-25 01:52 46.49664 -73.19931 27646 ft 360 kts 56°
2026-04-25 01:53 46.50768 -73.16686 27132 ft 356 kts 56°
2026-04-25 01:53 46.51852 -73.13485 26626 ft 351 kts 56°
2026-04-25 01:53 46.52920 -73.10314 26135 ft 348 kts 56°
2026-04-25 01:53 46.53979 -73.07178 25654 ft 344 kts 56°
2026-04-25 01:54 46.55028 -73.04077 25169 ft 340 kts 57°
2026-04-25 01:54 46.56062 -73.01006 24682 ft 337 kts 57°
2026-04-25 01:54 46.57086 -72.97962 24213 ft 334 kts 57°
2026-04-25 01:54 46.58099 -72.94945 23748 ft 330 kts 57°
2026-04-25 01:55 46.59100 -72.91966 23264 ft 327 kts 57°
2026-04-25 01:55 46.60264 -72.89258 22728 ft 311 kts 36°
2026-04-25 01:55 46.62229 -72.88435 22142 ft 295 kts 13°
2026-04-25 01:55 46.64142 -72.87361 21973 ft 296 kts 24°
2026-04-25 01:56 46.65934 -72.85846 21804 ft 303 kts 30°
2026-04-25 01:56 46.67609 -72.84017 21881 ft 308 kts 34°
2026-04-25 01:56 46.69275 -72.82093 21460 ft 304 kts 35°
2026-04-25 01:56 46.70907 -72.80151 21020 ft 301 kts 36°
2026-04-25 01:57 46.73372 -72.75305 20150 ft 315 kts 69°
2026-04-25 01:57 46.73708 -72.72125 19716 ft 319 kts 77°
2026-04-25 01:57 46.73952 -72.68930 19271 ft 314 kts 75°
2026-04-25 01:58 46.74370 -72.65828 18814 ft 309 kts 70°
2026-04-25 01:58 46.74915 -72.62809 18365 ft 307 kts 69°
2026-04-25 01:58 46.75412 -72.59789 17916 ft 306 kts 71°
2026-04-25 01:58 46.75707 -72.56716 17477 ft 312 kts 85°
2026-04-25 01:59 46.75695 -72.53578 17019 ft 305 kts 78°
2026-04-25 01:59 46.76064 -72.50572 16559 ft 297 kts 70°
2026-04-25 01:59 46.76643 -72.47733 16114 ft 294 kts 67°
2026-04-25 01:59 46.77227 -72.44912 16005 ft 289 kts 69°
2026-04-25 02:00 46.77719 -72.42062 16005 ft 290 kts 71°
2026-04-25 02:00 46.78189 -72.39200 16001 ft 290 kts 70°
2026-04-25 02:00 46.78687 -72.36346 15996 ft 291 kts 70°
2026-04-25 02:00 46.79202 -72.33494 15999 ft 289 kts 69°
2026-04-25 02:01 46.79923 -72.30785 15993 ft 289 kts 67°
2026-04-25 02:01 46.80055 -72.27811 16014 ft 303 kts 92°
2026-04-25 02:01 46.79560 -72.24788 16010 ft 307 kts 100°
2026-04-25 02:01 46.79015 -72.21784 16007 ft 305 kts 96°
2026-04-25 02:02 46.78670 -72.18780 16003 ft 302 kts 91°
2026-04-25 02:02 46.78428 -72.15739 16004 ft 301 kts 91°
2026-04-25 02:02 46.78118 -72.12702 16007 ft 303 kts 93°
2026-04-25 02:02 46.77757 -72.09680 16005 ft 304 kts 94°
2026-04-25 02:03 46.77416 -72.06684 16006 ft 297 kts 92°
2026-04-25 02:03 46.77105 -72.03712 16003 ft 296 kts 92°
2026-04-25 02:03 46.76785 -72.00735 16001 ft 297 kts 93°
2026-04-25 02:03 46.76454 -71.97763 16003 ft 295 kts 93°
2026-04-25 02:04 46.76127 -71.94815 16001 ft 295 kts 93°
2026-04-25 02:04 46.75802 -71.91860 16000 ft 295 kts 93°
2026-04-25 02:04 46.75475 -71.88901 16001 ft 295 kts 94°
2026-04-25 02:04 46.75148 -71.85952 15998 ft 295 kts 94°
2026-04-25 02:05 46.74818 -71.82988 15564 ft 296 kts 94°
2026-04-25 02:05 46.74487 -71.80050 15070 ft 290 kts 94°
2026-04-25 02:05 46.74169 -71.77199 14572 ft 286 kts 94°
2026-04-25 02:05 46.73852 -71.74359 14077 ft 282 kts 94°
2026-04-25 02:06 46.73539 -71.71557 13580 ft 278 kts 95°
2026-04-25 02:06 46.73227 -71.68784 13073 ft 275 kts 95°
2026-04-25 02:06 46.72965 -71.66042 12565 ft 269 kts 88°
2026-04-25 02:06 46.73211 -71.63394 12036 ft 261 kts 70°
2026-04-25 02:07 46.73978 -71.61049 11522 ft 254 kts 55°
2026-04-25 02:07 46.75113 -71.59091 11022 ft 250 kts 45°
2026-04-25 02:07 46.76371 -71.57358 10525 ft 249 kts 43°
2026-04-25 02:07 46.77632 -71.55645 10044 ft 247 kts 44°
2026-04-25 02:08 46.78795 -71.53972 9997 ft 229 kts 45°
2026-04-25 02:08 46.79890 -71.52383 9989 ft 217 kts 44°
2026-04-25 02:08 46.80963 -71.50844 9987 ft 216 kts 45°
2026-04-25 02:08 46.82033 -71.49306 9992 ft 216 kts 45°
2026-04-25 02:09 46.83103 -71.47768 9990 ft 215 kts 45°
2026-04-25 02:09 46.84169 -71.46236 9977 ft 216 kts 45°
2026-04-25 02:09 46.85264 -71.44660 9503 ft 224 kts 45°
2026-04-25 02:09 46.86372 -71.43067 9015 ft 221 kts 45°
2026-04-25 02:10 46.87463 -71.41497 8534 ft 218 kts 45°
2026-04-25 02:10 46.88514 -71.39985 8163 ft 211 kts 45°
2026-04-25 02:10 46.89536 -71.38520 8002 ft 199 kts 44°
2026-04-25 02:10 46.90583 -71.37221 7993 ft 197 kts 39°
2026-04-25 02:11 46.91662 -71.35990 7991 ft 196 kts 39°
2026-04-25 02:11 46.92731 -71.34741 7994 ft 197 kts 40°
2026-04-25 02:11 46.93792 -71.33479 7990 ft 197 kts 40°
2026-04-25 02:11 46.94851 -71.32204 7991 ft 196 kts 41°
2026-04-25 02:12 46.95850 -71.30840 7990 ft 197 kts 45°
2026-04-25 02:12 46.96816 -71.29413 7855 ft 201 kts 46°
2026-04-25 02:12 46.97790 -71.27983 7356 ft 192 kts 45°
2026-04-25 02:12 46.98712 -71.26659 6859 ft 181 kts 44°
2026-04-25 02:13 46.99593 -71.25376 6349 ft 177 kts 45°
2026-04-25 02:13 47.00452 -71.24090 5848 ft 176 kts 45°
2026-04-25 02:13 47.01345 -71.22898 5341 ft 177 kts 37°
2026-04-25 02:13 47.02368 -71.21897 4843 ft 177 kts 35°
2026-04-25 02:14 47.03389 -71.20870 4343 ft 179 kts 35°
2026-04-25 02:14 47.04409 -71.19841 4002 ft 170 kts 36°
2026-04-25 02:14 47.05389 -71.18825 3994 ft 173 kts 38°
2026-04-25 02:14 47.06022 -71.17364 3976 ft 177 kts 80°
2026-04-25 02:15 47.05648 -71.15647 3992 ft 187 kts 128°
2026-04-25 02:15 47.04459 -71.14865 3984 ft 198 kts 175°
2026-04-25 02:15 47.03073 -71.15018 3605 ft 199 kts 186°
2026-04-25 02:15 47.01708 -71.15243 3174 ft 196 kts 185°
2026-04-25 02:16 47.00381 -71.15443 3003 ft 184 kts 185°
2026-04-25 02:16 46.99101 -71.15601 2992 ft 185 kts 186°
2026-04-25 02:16 46.97814 -71.15753 2990 ft 185 kts 185°
2026-04-25 02:16 46.96517 -71.15920 2996 ft 192 kts 185°
2026-04-25 02:17 46.95174 -71.16116 2996 ft 191 kts 185°
2026-04-25 02:17 46.93851 -71.16315 3011 ft 192 kts 185°
2026-04-25 02:17 46.92525 -71.16509 3013 ft 189 kts 185°
2026-04-25 02:17 46.91300 -71.16684 3007 ft 171 kts 185°
2026-04-25 02:18 46.90139 -71.16860 3011 ft 169 kts 185°
2026-04-25 02:18 46.89019 -71.17369 3024 ft 170 kts 213°
2026-04-25 02:18 46.88227 -71.18651 2912 ft 170 kts 247°
2026-04-25 02:18 46.87975 -71.20307 2798 ft 167 kts 267°
2026-04-25 02:19 46.87880 -71.21973 2829 ft 167 kts 260°
2026-04-25 02:19 46.87617 -71.23622 2634 ft 166 kts 261°
2026-04-25 02:19 46.87510 -71.24722 2512 ft 164 kts 266°
2026-04-25 02:19 46.87136 -71.26193 2269 ft 142 kts 244°
2026-04-25 02:20 46.86763 -71.27427 2051 ft 128 kts 251°
2026-04-25 02:20 46.86427 -71.28618 1777 ft 127 kts 245°
2026-04-25 02:20 46.85951 -71.29673 1550 ft 125 kts 227°
2026-04-25 02:20 46.85306 -71.30495 1375 ft 122 kts 219°
2026-04-25 02:21 46.84688 -71.31313 1357 ft 120 kts 227°
2026-04-25 02:21 46.84109 -71.32205 1223 ft 119 kts 228°
2026-04-25 02:21 46.83522 -71.33071 1118 ft 121 kts 223°
2026-04-25 02:21 46.82901 -71.33884 1031 ft 119 kts 224°
2026-04-25 02:22 46.82333 -71.34780 881 ft 122 kts 224°
2026-04-25 02:22 46.81717 -71.35611 743 ft 120 kts 225°
2026-04-25 02:22 46.81127 -71.36478 580 ft 121 kts 224°
2026-04-25 02:22 46.80533 -71.37342 405 ft 120 kts 225°
2026-04-25 02:23 46.79950 -71.38182 276 ft 119 kts 224°
2026-04-25 02:23 46.79418 -71.38935 256 ft 85 kts 225°
2026-04-25 02:23 46.79122 -71.39369 256 ft 45 kts 225°
2026-04-25 02:23 46.78933 -71.39644 256 ft 18 kts 225°
2026-04-25 02:24 46.78857 -71.39694 256 ft 8 kts 132°
2026-04-25 02:24 46.78844 -71.39600 256 ft 12 kts 98°
2026-04-25 02:24 46.78834 -71.39446 256 ft 17 kts 82°
2026-04-25 02:24 46.78909 -71.39310 256 ft 16 kts 38°
2026-04-25 02:25 46.78994 -71.39207 256 ft 18 kts 43°
2026-04-25 02:25 46.79098 -71.39058 256 ft 24 kts 45°
2026-04-25 02:25 46.79199 -71.38914 256 ft 8 kts 44°
2026-04-25 02:25 46.79257 -71.38829 256 ft 15 kts 45°
2026-04-25 02:26 46.79346 -71.38697 256 ft 21 kts 45°
2026-04-25 02:26 46.79438 -71.38565 256 ft 18 kts 44°
2026-04-25 02:26 46.79483 -71.38502 256 ft 0 kts 42°
2026-04-25 02:26 46.79499 -71.38482 256 ft 6 kts 42°
2026-04-25 02:27 46.79548 -71.38414 256 ft 12 kts 48°
2026-04-25 02:27 46.79589 -71.38284 256 ft 15 kts 53°
2026-04-25 02:27 46.79659 -71.38185 256 ft 5 kts 45°
2026-04-25 02:27 46.79692 -71.38135 256 ft 2 kts 62°
2026-04-25 02:28 46.79693 -71.38113 256 ft 2 kts 117°
2026-04-25 02:28 46.79678 -71.38091 256 ft 6 kts 136°
2026-04-25 02:28 46.79630 -71.38020 256 ft 12 kts 129°
2026-04-25 02:28 46.79621 -71.38008 256 ft 2 kts 155°
2026-04-25 02:29 46.79615 -71.38009 256 ft 1 kts 201°
2026-04-25 02:29 46.79609 -71.38017 256 ft 1 kts 226°
2026-04-25 02:29 46.79606 -71.38022 256 ft 0 kts 225°
2026-04-25 02:41 46.79613 -71.38011 256 ft 4 kts 225°
2026-04-25 02:41 46.79632 -71.37984 256 ft 4 kts 225°
2026-04-25 02:41 46.79651 -71.37956 256 ft 4 kts 225°
2026-04-25 02:41 46.79653 -71.37954 256 ft 11 kts 225°
2026-04-25 02:42 46.79629 -71.37991 256 ft 8 kts 211°
2026-04-25 02:42 46.79636 -71.38021 256 ft 10 kts 300°
2026-04-25 02:42 46.79683 -71.38096 256 ft 13 kts 311°
2026-04-25 02:42 46.79665 -71.38188 256 ft 13 kts 210°
2026-04-25 02:43 46.79671 -71.38187 256 ft 8 kts 189°
2026-04-25 02:43 46.79593 -71.38276 256 ft 16 kts 214°
2026-04-25 02:43 46.79527 -71.38319 256 ft 13 kts 217°
2026-04-25 02:43 46.79473 -71.38394 256 ft 13 kts 224°
2026-04-25 02:44 46.79419 -71.38472 256 ft 14 kts 224°
2026-04-25 02:44 46.79368 -71.38539 256 ft 9 kts 210°
2026-04-25 02:44 46.79287 -71.38570 256 ft 16 kts 191°
2026-04-25 02:44 46.79180 -71.38599 256 ft 16 kts 190°
2026-04-25 02:45 46.79089 -71.38623 256 ft 4 kts 191°
2026-04-25 02:45 46.79051 -71.38616 256 ft 10 kts 153°
2026-04-25 02:45 46.78986 -71.38566 256 ft 14 kts 152°
2026-04-25 02:45 46.78949 -71.38473 256 ft 16 kts 99°
2026-04-25 02:46 46.78934 -71.38317 256 ft 16 kts 97°
2026-04-25 02:46 46.78924 -71.38202 256 ft 15 kts 98°
2026-04-25 02:46 46.78917 -71.38093 256 ft 11 kts 86°
2026-04-25 02:46 46.78917 -71.38035 256 ft 0 kts 110°
2026-04-25 02:47 46.78916 -71.38032 256 ft 8 kts 119°
2026-04-25 02:47 46.78940 -71.38008 256 ft 3 kts 15°
2026-04-25 02:47 46.78983 -71.37998 256 ft 7 kts
2026-04-25 02:47 46.79000 -71.37995 256 ft 0 kts